Other Public Products
Issued by NWS Grand Forks, ND

Home | Current Version | Previous Version | Text Only | Print | Product List | Glossary On
Versions: 1 2 3 4 5 6 7 8 9 10 11 12 13 14 15 16 17 18 19 20 21 22 23 24 25 26 27 28 29 30 31 32 33 34 35 36 37 38 39 40 41 42 43 44 45 46 47 48 49 50
000
FPUS83 KFGF 232110
OPUFGF
PRAIRIE TO PINES WEATHER ROUNDUP
NATIONAL WEATHER SERVICE EASTERN NORTH DAKOTA/GRAND FORKS ND
300 PM CST SUN NOV 23 2014

 **SATELLITE DATA USED TO AUGMENT SKY COVER AT AUTOMATED STATIONS**
 *****  WEATHER ACROSS EASTERN NORTH DAKOTA  *****

CITY           SKY/WX    TMP DP  RH WIND       PRES   REMARKS
GRAND FORKS    CLOUDY    29  26  89 N17       29.46R WCI  17
GRAND FORKS AF CLOUDY    30  28  93 N12       29.46R WCI  21
GRAND CITY NWS   N/A     28 N/A N/A N7          N/A  WCI  21
BUXTON         NOT AVBL
DEVILS LAKE    CLOUDY    21  12  68 N22       29.48R WCI   5
FARGO          CLOUDY    36  22  56 W12       29.46S
WAHPETON ARPT  CLOUDY    36  28  75 NW14      29.46S
$$

 *****  WEATHER ACROSS CENTRAL AND WESTERN NORTH DAKOTA  *****

CITY           SKY/WX    TMP DP  RH WIND       PRES   REMARKS
JAMESTOWN      CLOUDY    25  19  78 NW28G36   29.48S WCI   9
BISMARCK       CLOUDY    24  15  68 NW20G30   29.62S WCI  10
MINOT          FLURRIES  17   8  67 NW23G31   29.63R WCI  -1
MINOT AFB      MIX PCPN  17  10  72 NW23G29   29.63R WCI  -1
GARRISON         N/A     19  10  68 NW32G39   29.61R WCI  -1
WILLISTON      CLOUDY    20  12  71 NW16      29.76R WCI   6
DICKINSON      CLOUDY    24  15  68 NW26G41   29.64R WCI   8
HETTINGER      CLOUDY    27  19  72 NW31G43   29.66R WCI  10
$$

 *****  OTHER OBSERVATIONS NORTHEAST NORTH DAKOTA  *****

CITY           SKY/WX    TMP DP  RH WIND       PRES   REMARKS
WALHALLA       LGT SNOW  19  19 100 NW21G31   29.51R WCI   3
LANGDON        CLOUDY    18  14  86 NW21G30   29.47R FOG     WCI   1
CAVALIER       CLOUDY    21  19  93 NW17G24   29.50R FOG     WCI   7
GRAFTON        CLOUDY    23  23 100 N18G24    29.48R FOG     WCI   9
CANDO          MOCLDY    19  18  93 N15G24    29.53R FOG     WCI   5
FORT TOTTEN      N/A     22  19  87 N9        29.95S WCI  12
ROLLA          LGT SNOW  14  10  85 NW26      29.54R WCI  -6
RUGBY          LGT SNOW  16  10  79 NW22G30   29.57R WCI  -2
 ***** THE ABOVE OBSERVATIONS ARE NON NWS ARE NOT QUALITY
        CONTROLLED AND MAY MIS-REPORT RAIN FOR SNOW...
$$

 *****  OTHER OBSERVATIONS SOUTHEAST NORTH DAKOTA *****

CITY           SKY/WX    TMP DP  RH WIND       PRES   REMARKS
COOPERSTOWN    NOT AVBL
VALLEY CITY    FLURRIES  28  19  69 W21G32    29.46F WCI  15
OAKES            N/A     28  23  80 W29G39    29.49S WCI  13
GWINNER        CLOUDY    34  27  75 NW23G29   29.50R WCI  22
BUFFALO        NOT AVBL
WYNDMERE         N/A     34  27  75 NW16        N/A  WCI  23
 ***** THE ABOVE OBSERVATIONS ARE NON NWS ARE NOT QUALITY
       CONTROLLED AND MAY MIS-REPORT RAIN FOR SNOW...
$$

  *****  WEATHER ACROSS NORTHERN MINNESOTA  *****

CITY           SKY/WX    TMP DP  RH WIND       PRES   REMARKS
FLAG ISLAND    SNOW      32  30  93 CALM      29.37S VSB 1/4
WARROAD        CLOUDY    36  32  87 W3        29.39R FOG
ROSEAU         CLOUDY    34  28  80 NW9       29.39S
HALLOCK        CLOUDY    23  21  93 NW18G26   29.46R FOG     WCI   9
THF RVR FALLS  CLOUDY    34  30  86 NW16      29.41R WCI  23
HALSTAD          N/A     34  19  55 W14         N/A  WCI  25
FOSSTON        CLOUDY    36  34  93 SW7       29.40S
BAUDETTE       LGT RAIN  35  33  92 CALM      29.38S FOG
WASKISH        DRIZZLE   37  34  87 CALM      29.38F
CROOKSTON      CLOUDY    32  30  93 N13       29.45R WCI  22
$$
  *****  WEATHER ACROSS CENTRAL AND WEST MINNESOTA  *****

CITY           SKY/WX    TMP DP  RH WIND       PRES   REMARKS
BEMIDJI        CLOUDY    37  32  83 W6        29.38F
PARK RAPIDS    CLOUDY    40  34  79 W7        29.38F
WADENA         CLOUDY    37  34  87 W7        29.41S
DETROIT LAKES  CLOUDY    36  30  80 NW20G26   29.43R
MOORHEAD       CLOUDY    36  27  69 W15G23    29.46F
FERGUS FALLS   CLOUDY    36  27  69 NW20G26   29.46R
ELBOW LAKE       N/A     37  34  87 W15       29.43S
MORRIS MN        N/A     39  32  75 NW14      29.44S
STAPLES        CLOUDY    37  34  87 W8        29.40S
WHEATON        CLOUDY    37  28  70 W16G24    29.48S
$$
  *****  WEATHER ELSEWHERE ACROSS MINNESOTA  *****

CITY           SKY/WX    TMP DP  RH WIND       PRES   REMARKS
DULUTH         CLOUDY    40  36  86 NW7       29.37F FOG
INTRNTL FALLS  CLOUDY    36  32  85 CALM      29.38S
ELY            CLOUDY    36  36 100 SW3       29.36S FOG
CLOQUET        CLOUDY    39  37  93 W7        29.38F FOG
BRAINERD       CLOUDY    38  34  85 NW5       29.39F
HIBBING        CLOUDY    37  33  85 W6        29.38S FOG
ALEXANDRIA     CLOUDY    37  33  85 NW10      29.43S
SAINT CLOUD    LGT RAIN  39  35  86 W7        29.41F FOG
MINNEAPOLIS    CLOUDY    43  37  79 NW12      29.39S
$$

  *****  WEATHER ACROSS SOUTH DAKOTA  *****

CITY           SKY/WX    TMP DP  RH WIND       PRES   REMARKS
SIOUX FALLS    CLOUDY    42  31  64 NW20G37   29.50F
BROOKINGS      NOT AVBL
WATERTOWN      CLOUDY    35  26  69 NW20G31   29.48S WCI  24
HURON          CLOUDY    40  27  59 NW25G39   29.54F
SISSETON         N/A     36  27  69 NW21G31   29.47R
ABERDEEN       CLOUDY    33  23  66 NW23G35   29.54R WCI  21
MITCHELL       NOT AVBL
PIERRE         CLOUDY    37  23  56 NW30G44   29.61R
MOBRIDGE       CLOUDY    30  20  66 NW24G36   29.59R WCI  16
RAPID CITY     PTSUNNY   40  21  46 NW40G51   29.69S
$$

  *****  SOME WEATHER IN NEARBY STATES *****

CITY           SKY/WX    TMP DP  RH WIND       PRES   REMARKS
GLASGOW MT     FLURRIES  27  19  72 NW17      29.81F WCI  14
GREAT FALLS MT MOSUNNY   41  16  36 W25G36    29.85F
CHEYENNE WY    PTSUNNY   33  13  43 NW21G37   29.77S WCI  21
SCOTTSBLUFF NE SUNNY     44  10  25 NW26G45   29.77R
OMAHA NE       LGT RAIN  45  37  73 N18G31    29.48S
DES MOINES IA  CLOUDY    53  51  93 S3        29.34F FOG
DAVENPORT IA   LGT RAIN  52  49  89 S13       29.37F FOG
CHICAGO IL     LGT RAIN  51  48  89 SE13      29.48F FOG
EAU CLAIRE WI  CLOUDY    49  48  97 S8        29.36F FOG
LA CROSSE WI   FOG       50  48  93 S3        29.37F VSB 1/2
$$

  *****  SOME NATIONAL WEATHER *****

CITY           SKY/WX    TMP DP  RH WIND       PRES   REMARKS
LA GUARDIA NY  MOCLDY    53  28  38 VRB6      30.13F
RALEIGH NC     CLOUDY    56  51  84 E6        30.04F
ATLANTA GA     RAIN      54  52  93 E13       29.72F FOG
NEW ORLEANS LA MOSUNNY   75  58  55 SW20      29.64S
OKLAHOMA CITY  PTSUNNY   62  43  49 NW16      29.37R
ALBUQUERQUE NM MOSUNNY   45  14  28 W35G46    29.87S
SALT LAKE CITY MOSUNNY   39  22  50 NW15G23   30.22F
LOS ANGELES CA MOSUNNY   74  38  27 S12       30.07F
BOISE ID       SUNNY     46  30  53 NW5       30.27F
SEATTLE WA     PTSUNNY   53  45  74 SW14G23   30.13R
$$

*** WEATHER ACROSS MANITOBA...SASKATCHEWAN AND ONTARIO ***
                ***ONTARIO***

CITY           SKY/WX    TMP DP  RH WIND       PRES   REMARKS
GERALDTON      FRZ DRZL  25  25 100 NE10G17   29.47F VSB 5/8 WCI  15
THUNDER BAY    FOG       39  39 100 E5        29.40F VSB 1/8
SIOUX LOOKOUT  DRIZZLE   34  34 100 VRB2      29.38F FOG
TORONTO        MOCLDY    46  45  93 SE6       29.86F
BIG TROUT LK   LGT SNOW   5   0  78 NE7       29.77S WCI  -7
PICKLE LAKE    FRZ DRZL  16  14  93 E8        29.50S WCI   5
DRYDEN         CLOUDY    34  34 100 CALM      29.37S FOG
KENORA         LGT SNOW  32  32 100 VRB2      29.38S VSB 1
$$
                *** MANITOBA***

CITY           SKY/WX    TMP DP  RH WIND       PRES   REMARKS
BRANDON        FLURRIES  14   9  79 NW16      29.61R WCI  -2
DAUPHIN        FLURRIES  12   7  79 N16G24    29.71R WCI  -4
ISLAND LAKE    LGT SNOW   3   0  85 NE9G18    29.78R DRFTSNOWWCI -11
PILOT MOUND    NOT AVBL
THE PAS        PTCLDY     5  -4  66 N7        29.91R WCI  -7
THOMPSON       MOCLDY    -6 -13  71 N8        29.95R WCI -21
WINNIPEG       FRZ DRZL  21  18  86 N21       29.50R VSB 3/4 WCI   6
LYNN LAKE      PTCLDY    -4  -9  77 VRB2      29.91S
CHURCHILL      CRYSTALS -11 -17  77 W9        29.98R WCI -29
GILLAM         PTCLDY   -13 -20  70 W6        29.97R WCI -27
$$
                ***SASKATCHEWAN***

CITY           SKY/WX    TMP DP  RH WIND       PRES   REMARKS
ESTEVAN        FLURRIES  16   9  73 NW28G33   29.71R WCI  -4
KINDERSLEY     MOSUNNY   18  10  73 NW7       29.79F WCI   8
LLOYDMINSTER   MOSUNNY   14   9  79 SW5       29.76F WCI   6
PRINCE ALBERT  LGT SNOW   9   1  72 N2        29.87S
REGINA         PTSUNNY   14  10  85 NW17      29.79R WCI  -3
YORKTON        SUNNY      9   3  78 N14G21    29.75R WCI  -8


USA.gov is the U.S. government's official web portal to all federal, state and local government web resources and services.